Location: Cheyres
(46.8153°N, 6.7877°E)
Time: 14:06:02
(UTC+00:00)

NANOSAT C BR1 - Pass Details

Date: 30 June 2022
Orbit: 584 x 599 km, 98.0° (Epoch: 18 August)

Event Time Altitude Azimuth Distance (km) Brightness Sun altitude
Rises 01:00:53 0° 23° (NNE) 2,850 ? -17.5°
Reaches altitude 10° 01:03:17 10° 35° (NE) 1,945 ? -17.3°
Maximum altitude 01:06:59 29° 96° (E) 1,107 ? -17.1°
Enters shadow 01:09:34 16° 147° (SSE) 1,573 ? -16.9°
